Hourly Data Report for July 10, 2021

LYNN LAKE
MANITOBA
Current Station Operator: NAVCAN

56°51'50.000" N
101°04'34.000" W
356.60 m
5061645
71078
YYL

Download Data

Hourly Data (July 2021)
Hourly Data Report for July 10, 2021
TIME
LST
Temp Definition
°C
Dew Point Definition
°C
Rel Hum Definition
%
Precip. Amount Definition
mm

Wind Dir Definition
10's deg

Wind Spd Definition
km/h
Visibility Definition
km
Stn Press Definition
kPa
Hmdx Definition


Wind Chill Definition


Weather Definition


00:00 19.8 12.1 61 0.0 35 11 16.1 97.18     LegendNANA
01:00 18.7 12.9 69 0.0 35 8 16.1 97.20     LegendNANA
02:00 18.7 13.6 72 0.0 2 13 16.1 97.24     LegendNANA
03:00 17.7 14.4 81 0.0 1 11 16.1 97.27     LegendNANA
04:00 17.3 14.6 84 0.0 1 8 16.1 97.30     LegendNANA
05:00 15.1 14.0 93 0.0 33 4 16.1 97.34     LegendNANA
06:00 16.9 15.3 90 0.0 34 5 16.1 97.37     LegendNANA
07:00 19.0 16.5 85 0.0 2 9 16.1 97.41     LegendNANA
08:00 21.7 16.5 72 0.0 4 9 16.1 97.42 27   LegendNANA
09:00 23.8 14.6 56 0.0 4 9 16.1 97.42 28   LegendNANA
10:00 25.1 13.2 47 0.0 11 11 16.1 97.41 28   LegendNANA
11:00 25.8 12.6 43 0.0 17 8 16.1 97.41 28   LegendNANA
12:00 26.4 9.5 34 0.0 35 9 16.1 97.40 27   LegendNANA
13:00 26.9 10.0 34 0.0 LegendMM 9 11.3 97.35 28   LegendNANA
14:00 27.1 11.4 37 0.0 LegendMM 8 16.1 97.31 29   LegendNANA
15:00 27.0 10.5 35 0.0   0 16.1 97.27 29   LegendNANA
16:00 27.2 10.9 36 0.0 15 9 16.1 97.25 29   LegendNANA
17:00 27.3 11.5 37 0.0 LegendMM 4 16.1 97.21 29   LegendNANA
18:00 26.9 10.5 35 0.0 12 8 16.1 97.18 28   LegendNANA
19:00 26.3 11.2 38 0.0 12 13 16.1 97.14 28   LegendNANA
20:00 25.2 12.1 44 0.0 13 13 16.1 97.11 28   LegendNANA
21:00 22.9 13.5 55 0.0 12 11 16.1 97.09 26   LegendNANA
22:00 21.5 13.3 59 0.0 13 11 16.1 97.06     LegendNANA
23:00 20.4 13.7 65 0.0 13 11 16.1 97.05     LegendNANA

Notes on Data Quality.

Legend

  • E = Estimated
  • M = Missing
  • NA = Not Available*
  • [empty] = Indicates an unobserved value
Date modified: